Weather History for KCHA - February, 2014

Change the Weather History Date:

Saturday, February 1, 2014

  Actual Average Record
Temperature  
Mean Temperature 40 °F 42 °F  
Max Temperature 56 °F 52 °F 72 °F (1890)
Min Temperature 24 °F 32 °F 10 °F (1900)
Degree Days  
Heating Degree Days 25 23  
Month to date heating degree days 25 23  
Since 1 July heating degree days 2236 2068  
Cooling Degree Days 0 0  
Month to date cooling degree days 0 0  
Year to date cooling degree days 0 0  
Moisture  
Dew Point 31 °F    
Average Humidity 66    
Maximum Humidity 92    
Minimum Humidity 39    
Precipitation  
Precipitation 0.02 in 0.17 in 2.02 in (1897)
Month to date precipitation 0.02 0.17  
Year to date precipitation 2.42 5.08  
Snow  
Snow 0.00 in 0.00 in - ()
Month to date snowfall 0.0 0.0  
Since 1 July snowfall 1.2 2.0  
Snow Depth 0.00 in    
Sea Level Pressure  
Sea Level Pressure 30.13 in    
Wind  
Wind Speed 2 mph (South)    
Max Wind Speed 13 mph    
Max Gust Speed 16 mph    
Visibility 10 miles    
Events      
T = Trace of Precipitation, MM = Missing Value Source: NWS Daily Summary

Daily Weather History Graph

Daily Weather History Graph

Search for Another Location

Airport or City:

Trip Planner

Search our weather history database for the weather conditions in past years. The results will help you decide how hot, cold, wet, or windy it might be!

Date:

Astronomy

Feb. 01, 2014 Rise Set
Actual Time 7:39 AM EST 6:09 PM EST
Civil Twilight 7:13 AM EST 6:36 PM EST
Nautical Twilight 6:42 AM EST 7:06 PM EST
Astronomical Twilight 6:12 AM EST 7:36 PM EST
Moon 8:35 AM EST (2/1) 8:36 PM EST (2/1)
Length of Visible Light 11h 23m
Length of Day
10h 29m
Waxing Crescent, 5% of the Moon is Illuminated
Feb 1
Waxing Crescent
Feb 6
First Quarter
Feb 14
Full
Feb 22
Last Quarter
Mar 1
New

Hourly Weather History & Observations

Time (EST) Temp. Dew Point Humidity Pressure Visibility Wind Dir Wind Speed Gust Speed Precip Events Conditions
12:53 AM 28.0 °F 21.0 °F 75% 30.15 in 10.0 mi Calm Calm - N/A   Clear
1:53 AM 28.0 °F 21.0 °F 75% 30.14 in 10.0 mi Calm Calm - N/A   Clear
2:53 AM 27.0 °F 19.9 °F 75% 30.14 in 10.0 mi Calm Calm - N/A   Clear
3:53 AM 26.1 °F 21.0 °F 81% 30.15 in 10.0 mi Calm Calm - N/A   Clear
4:53 AM 26.1 °F 21.0 °F 81% 30.16 in 10.0 mi Calm Calm - N/A   Clear
5:53 AM 24.1 °F 19.9 °F 84% 30.15 in 10.0 mi Calm Calm - N/A   Scattered Clouds
6:53 AM 25.0 °F 21.0 °F 85% 30.17 in 10.0 mi Calm Calm - N/A   Scattered Clouds
7:53 AM 25.0 °F 21.0 °F 85% 30.19 in 10.0 mi Calm Calm - N/A   Scattered Clouds
8:53 AM 30.9 °F 23.0 °F 72% 30.18 in 10.0 mi Calm Calm - N/A   Scattered Clouds
9:53 AM 37.0 °F 25.0 °F 62% 30.18 in 10.0 mi Calm Calm - N/A   Scattered Clouds
10:23 AM 39.2 °F 24.8 °F 56% 30.18 in 10.0 mi Calm Calm - N/A   Mostly Cloudy
10:53 AM 43.0 °F 24.1 °F 47% 30.18 in 10.0 mi Calm Calm - N/A   Mostly Cloudy
11:53 AM 48.0 °F 25.0 °F 41% 30.16 in 10.0 mi South 3.5 mph - N/A   Overcast
12:53 PM 50.0 °F 36.0 °F 59% 30.13 in 10.0 mi SSW 9.2 mph - N/A   Overcast
1:53 PM 50.0 °F 36.0 °F 59% 30.11 in 10.0 mi SW 6.9 mph - N/A   Overcast
2:53 PM 52.0 °F 41.0 °F 66% 30.09 in 10.0 mi South 8.1 mph - N/A   Mostly Cloudy
3:53 PM 55.0 °F 44.1 °F 67% 30.09 in 10.0 mi SSW 9.2 mph - N/A   Mostly Cloudy
4:29 PM 53.6 °F 44.6 °F 72% 30.08 in 10.0 mi South 9.2 mph - N/A   Mostly Cloudy
4:53 PM 54.0 °F 44.1 °F 69% 30.09 in 10.0 mi South 9.2 mph - N/A   Mostly Cloudy
5:53 PM 53.1 °F 43.0 °F 69% 30.09 in 10.0 mi South 5.8 mph - N/A   Mostly Cloudy
6:53 PM 50.0 °F 42.1 °F 74% 30.10 in 10.0 mi South 3.5 mph - N/A   Mostly Cloudy
7:53 PM 44.1 °F 39.9 °F 85% 30.11 in 10.0 mi Calm Calm - N/A   Mostly Cloudy
8:53 PM 41.0 °F 37.9 °F 89% 30.11 in 10.0 mi Calm Calm - N/A   Mostly Cloudy
9:53 PM 37.0 °F 35.1 °F 93% 30.11 in 10.0 mi Calm Calm - N/A   Mostly Cloudy
10:53 PM 37.0 °F 34.0 °F 89% 30.11 in 8.0 mi Calm Calm - N/A   Scattered Clouds
11:53 PM 35.1 °F 33.1 °F 92% 30.10 in 9.0 mi Calm Calm - N/A   Partly Cloudy